Location: Unspecified
(40.7945°N, 0.0000°E)
Time: 10:24:31
(UTC+00:00)

METEOR M2 - Visible Passes

Search period start: 17 July 2019 00:00
Search period end: 27 July 2019 00:00
Orbit: 819 x 827 km, 98.5° (Epoch: 17 July)

Date Brightness Start Highest point End Pass type
(mag) Time Alt. Az. Time Alt. Az. Time Alt. Az.
17 Jul ? 21:10:17 10° SW 21:14:12 20° W 21:18:07 10° NW visible
18 Jul ? 20:49:26 10° SSW 20:54:08 30° W 20:58:51 10° NW visible
19 Jul ? 20:28:59 10° S 20:34:08 46° W 20:39:19 10° NNW visible
20 Jul ? 20:08:50 10° S 20:14:11 70° WSW 20:19:35 10° NNW visible
21 Jul ? 19:48:56 10° SSE 19:54:18 79° ENE 19:59:42 10° N visible
21 Jul ? 21:32:45 10° WSW 21:35:02 13° W 21:37:20 10° WNW visible
22 Jul ? 21:11:04 10° SW 21:14:55 20° W 21:18:47 10° NW visible
23 Jul ? 20:50:12 10° SSW 20:54:51 30° W 20:59:32 10° NW visible
24 Jul ? 20:29:43 10° S 20:34:51 45° W 20:40:00 10° NNW visible
25 Jul ? 20:09:33 10° S 20:14:54 69° WSW 20:20:16 10° NNW visible
26 Jul ? 19:49:38 10° SSE 19:55:01 80° ENE 20:00:24 10° N visible
26 Jul ? 21:33:37 10° WSW 21:35:45 12° W 21:37:54 10° WNW visible
